This is the latest recevied weather packets stored in our database for station/object W5ALL-WX. If no packets are shown the sender has not sent any weather packets the latest 10 day(s).
| Time | Temp. | Humidity | Pressure | Rain* | Wind** | Luminosity | Snow |
|---|---|---|---|---|---|---|---|
| 1777983430 | 18.33° C | 34% | 1011.9 hPa | 0 mm | - | - | - |
| 1777983130 | 18.33° C | 36% | 1011.8 hPa | 0 mm | - | - | - |
| 1777982830 | 18.33° C | 35% | 1011.8 hPa | 0 mm | - | - | - |
| 1777982530 | 18.33° C | 36% | 1011.7 hPa | 0 mm | - | - | - |
| 1777982230 | 18.33° C | 36% | 1011.4 hPa | 0 mm | - | - | - |
| 1777981930 | 18.33° C | 37% | 1011.5 hPa | 0 mm | - | - | - |
| 1777981630 | 17.78° C | 37% | 1011.5 hPa | 0 mm | - | - | - |
| 1777981330 | 18.33° C | 37% | 1011.5 hPa | 0 mm | - | - | - |
| 1777981030 | 18.33° C | 37% | 1011.5 hPa | 0 mm | - | - | - |
| 1777980730 | 18.33° C | 36% | 1011.4 hPa | 0 mm | - | - | - |
| 1777980430 | 18.89° C | 35% | 1011.5 hPa | 0 mm | - | - | - |
| 1777980130 | 18.89° C | 33% | 1011.7 hPa | 0 mm | - | - | - |
| 1777979830 | 18.89° C | 33% | 1011.7 hPa | 0 mm | - | - | - |
| 1777979530 | 18.89° C | 34% | 1011.7 hPa | 0 mm | - | - | - |
| 1777979230 | 18.89° C | 34% | 1011.8 hPa | 0 mm | - | - | - |
| 1777978930 | 18.89° C | 34% | 1011.8 hPa | 0 mm | - | - | - |
| 1777978630 | 18.33° C | 34% | 1011.7 hPa | 0 mm | - | - | - |
| 1777978330 | 18.33° C | 35% | 1011.7 hPa | 0 mm | - | - | - |
| 1777978029 | 18.33° C | 36% | 1011.7 hPa | 0 mm | - | - | - |
| 1777977730 | 18.89° C | 35% | 1011.7 hPa | 0 mm | - | - | - |
| 1777977430 | 18.89° C | 35% | 1011.7 hPa | 0 mm | - | - | - |
| 1777977129 | 18.89° C | 34% | 1011.5 hPa | 0 mm | - | - | - |
| 1777976829 | 18.89° C | 33% | 1011.5 hPa | 0 mm | - | - | - |
| 1777976415 | 18.89° C | 34% | 1011.4 hPa | 0 mm | - | - | - |
| 1777976115 | 19.44° C | 33% | 1011.3 hPa | 0 mm | - | - | - |
* Rain latest hour (hover to see other rain measurements)
** Current wind speed in m/s (hover to see current wind gust speed)